Location: Capannuccia
(43.7000°N, 11.3000°E)
Time: 10:40:56
(UTC+00:00)

STARLINK-2720 - Pass Details

Date: 30 July 2021
Orbit: 546 x 548 km, 53.1° (Epoch: 23 September)

Event Time Altitude Azimuth Distance (km) Brightness Sun altitude
Rises 21:00:40 0° 290° (WNW) 2,717 8.1 -20.2°
Reaches altitude 10° 21:03:48 10° 265° (W) 1,817 6.6 -20.5°
Maximum altitude 21:05:59 14° 233° (SW) 1,571 5.9 -20.7°
Enters shadow 21:06:30 14° 224° (SW) 1,586 5.8 -20.8°
